CZ-6A DEB, 54905

Orbit data source: Space-Track

CZ-6A DEB, 54905 is space debris in SSO originally from a launch on Fri, 11 Nov 2022 UTC launched from the Taiyaun Space Center, China (TSC). Debris objects in space refer to the collection of defunct objects orbiting the Earth. Examples of debris include non-operational satellites, rocket bodies, and fragments generated from explosions, collisions, or faulty payload assembly.

Loading next visibility...
Identifier
54905, 2022-151QS
Orbit
SSO
Country
Flag of CNCN / PRC
Related business
Manufacturer
SAST
Mission
Spacecraft
Bus & Motor
Unknown
Mass
Unknown
Launch date (UTC)
2022-11-11 (4 years ago)
Launch vehicle
Unknown
Launch site
Taiyaun Space Center, China (TSC)
Object type
Payload
Rocket body
Debris
Shape & HBR
Unknown shape, 0.1 m
Radar Cross Section
Small (<0.1 m²)

Expand to show TLE details & history
Last TLE update: 1 day ago

TLE from 1 day ago
0 CZ-6A DEB
1 54905U 22151QS  26235.16596280  .00001220  00000-0  33114-3 0  9999
2 54905  98.7070 302.2323 0081849  82.9245 278.1245 14.47517909196171
Epoch: 2026-08-23T03:58Z
TLE epoch observation values (Epoch: 2026-08-23T03:58:59.185Z)
Latitude
-0.00011°
Longitude
-88.98021°
Altitude
728.959 km
Speed
7.495 km/s
True Right ascension
20h 08m 55s
True Declination
0° 00' 00"
Sunlit
Object was in full shadow at epoch
Visualization orbit readout
Latitude
Unknown
Longitude
Unknown
Altitude
Unknown
Speed
Unknown
Apparent Right ascension
Unknown
Apparent Declination
Unknown
Sunlit
N/A
Visualization observer readout
Local Sidereal Time
04:19:24
Azimuth
Unknown
Elevation
Unknown
Doppler factor
Unknown
Orbital elements
Apogee altitude
789.075 km
Perigee altitude
672.702 km
Semi-major axis
7,109.025 km
Eccentricity
0.00818
Inclination
98.707°
RAAN
302.2323°
Arg. of periapsis
82.9245°
True anomaly
277.19469°
Mean anomaly
278.1245°
Eccentric anomaly
277.65972°
Mean motion
3.621 °/min
Orbital period
99.42 mins
BSTAR
0.00033114
Loading maneuver chart data...
Computing Atmospheric mass density...
Loading historical data...
Loading historical data...
Loading historical data...
Loading historical data...
Loading historical data...
Loading historical data...
Loading historical data...

Documentation

Showing up to 5 results
|